Wind_Speed
14 13 11 11 10 7 6 4 3 2 1 1 3 4 3 2 2 3 4 5 6 7 7 7 7 7 7 7 7 6 7 6 6 6 6 5 5 5 5 6 5 5 4 4
16 15 14 13 12 10 7 5 4 4 3 2 2 2 1 0 0 1 2 3 4 5 5 5 6 6 6 6 6 6 6 6 6 6 5 4 4 5 5 5 6 6 5 4
18 16 17 16 15 12 9 7 7 6 5 3 4 3 2 1 1 0 2 2 2 4 4 5 5 5 5 6 5 5 5 5 5 5 5 4 4 4 4 5 5 5 5 4
20 19 19 18 17 14 12 10 9 8 7 6 4 4 2 1 1 1 1 2 1 2 3 4 4 4 5 5 4 5 4 4 5 4 4 3 3 3 4 5 5 4 4 4
21 21 21 20 18 17 14 12 11 10 10 8 6 6 3 3 2 1 1 1 1 1 1 2 2 3 3 4 4 4 3 4 4 4 3 2 3 3 3 3 3 3 4 4
22 22 22 21 19 18 17 15 14 13 12 11 9 9 6 5 5 4 3 3 2 2 1 0 1 1 2 2 3 3 3 3 3 3 3 2 2 2 2 3 3 4 4 4
23 23 22 22 20 19 18 17 16 14 14 12 11 11 7 6 6 5 5 4 4 4 3 2 2 2 2 1 1 2 1 2 2 3 3 2 2 2 2 3 4 4 4 5
23 22 22 22 22 20 20 19 18 16 16 13 13 11 8 7 7 6 6 5 5 5 5 4 3 3 3 2 2 2 1 1 2 2 2 2 2 2 2 3 4 4 5 6
22 21 21 22 22 21 21 20 19 19 18 16 14 12 9 9 8 7 6 6 6 6 6 6 5 5 4 4 4 3 2 2 2 2 2 2 3 3 3 4 4 5 5 6
23 23 23 23 23 22 20 20 20 20 19 19 16 13 10 10 9 8 8 8 8 7 7 7 6 6 5 5 5 4 4 3 3 3 3 3 3 4 4 5 5 6 7 7
24 23 22 23 24 23 22 21 21 20 21 20 18 15 12 11 11 10 10 9 9 9 10 9 8 8 7 7 7 6 6 5 4 4 5 4 5 5 5 6 7 8 8 9
24 24 23 23 24 24 23 22 22 22 22 20 18 15 13 13 13 13 12 11 10 10 10 10 9 9 9 9 8 7 7 6 6 6 6 6 6 6 6 7 8 9 10 10
25 25 24 25 26 26 25 23 22 22 22 21 19 16 13 13 14 14 14 13 12 11 11 11 11 10 11 11 10 10 9 8 8 8 8 8 8 8 9 9 10 10 11 11
26 26 26 26 26 26 26 24 23 22 23 22 20 18 16 14 14 14 14 14 13 13 12 12 12 12 12 12 12 11 10 10 10 11 10 10 11 11 11 11 12 12 13 13
26 26 25 26 26 27 27 26 25 24 24 23 21 20 18 16 16 15 15 15 14 14 13 13 13 13 13 13 13 13 13 13 12 12 12 12 13 13 14 14 15 15 15 15
28 27 26 27 27 28 28 28 28 27 26 24 23 21 19 18 18 17 16 16 16 15 15 14 14 15 15 14 14 14 15 15 14 14 15 14 14 15 16 16 17 17 17 17
30 28 28 28 28 29 30 29 28 28 27 26 25 22 20 19 19 19 18 18 18 18 17 17 16 16 17 17 16 17 17 17 17 17 17 17 17 18 18 19 19 20 20 20
32 31 30 29 29 30 29 28 28 28 27 27 27 25 23 22 21 20 20 18 19 18 18 19 19 19 18 19 19 19 19 19 19 19 20 20 20 21 21 20 21 21 22 21
33 33 33 32 31 31 30 28 28 28 28 27 27 26 25 24 23 22 21 21 21 21 21 21 21 22 22 20 20 20 21 21 21 21 21 22 23 23 23 23 23 23 23 23
35 35 35 34 34 33 31 29 29 30 29 28 28 28 27 26 25 23 23 23 23 23 23 23 23 23 23 23 23 23 23 23 24 24 24 24 25 25 25 24 25 25 25 25
37 37 36 36 35 34 32 31 31 32 30 29 29 29 28 28 27 26 25 25 25 25 25 25 24 24 25 25 25 25 25 26 27 26 26 26 25 26 26 27 27 28 28 27
37 37 36 36 36 34 32 33 33 32 31 30 30 30 30 29 29 28 27 27 27 27 27 26 26 27 28 27 27 27 28 29 28 29 28 27 26 27 28 29 29 30 30 29
37 37 36 35 35 33 33 34 34 33 33 32 32 32 31 31 30 30 29 29 29 29 29 28 28 28 29 30 30 29 30 31 30 30 31 31 30 30 30 30 30 31 31 31
37 36 36 35 35 34 34 34 34 34 34 33 33 33 33 32 31 31 30 30 30 30 30 29 29 29 30 31 32 32 32 32 32 32 32 32 31 31 31 32 32 31 31 32
37 37 37 36 35 35 34 34 33 33 33 33 33 34 34 34 33 32 32 32 31 30 30 30 30 31 32 33 33 33 34 34 33 32 32 33 32 31 32 33 33 33 33 34
36 37 37 36 35 35 34 34 34 34 34 34 34 34 34 34 34 34 33 32 32 32 32 32 32 32 33 34 34 35 35 35 34 34 34 34 34 34 34 34 34 35 35 36
Wind_Direction
213 211 206 210 215 221 223 225 236 244 191 14 23 26 51 63 50 46 58 67 70 71 70 66 62 62 62 59 58 66 67 66 67 72 77 78 80 76 73 72 70 70 68 64
215 214 214 217 222 225 226 228 232 229 231 276 317 345 360 164 28 5 49 61 69 70 71 67 60 59 59 56 57 65 66 65 63 67 74 77 77 67 66 64 62 64 67 64
220 220 220 221 224 227 231 234 236 234 242 271 299 318 302 227 207 296 41 59 70 64 70 66 60 57 58 54 57 60 62 62 60 61 70 77 78 71 67 62 58 57 59 58
224 224 224 224 225 228 232 236 235 237 249 258 281 293 296 288 230 197 22 32 60 61 63 64 66 59 55 53 51 54 57 55 56 53 60 68 76 73 66 57 50 43 41 41
225 225 225 225 227 230 229 234 237 238 247 254 264 276 281 283 262 247 311 347 349 16 46 54 53 54 49 48 51 55 56 50 50 47 53 71 76 67 56 46 35 24 16 12
225 226 228 225 227 230 231 234 239 240 246 253 261 269 267 274 270 257 267 299 304 292 289 301 4 10 25 38 43 45 41 39 39 39 48 51 50 45 39 25 14 8 3 1
227 228 229 227 228 232 232 235 238 242 246 252 258 265 264 268 270 268 270 272 283 283 287 286 305 310 327 353 6 17 22 20 24 33 40 39 28 20 8 9 8 7 358 353
231 228 228 229 229 231 234 236 237 242 247 248 255 262 264 267 270 273 269 268 279 284 283 285 295 301 295 295 305 325 340 350 6 8 5 9 13 6 355 354 355 354 349 342
230 230 228 229 229 231 233 235 236 242 247 249 254 259 263 265 268 274 271 267 272 284 283 284 285 287 291 284 282 289 298 303 320 328 339 341 338 333 333 338 338 336 333 329
228 228 226 228 229 230 233 234 236 241 248 251 252 256 263 262 261 270 276 271 272 279 281 282 282 282 279 278 275 276 285 285 297 308 314 316 317 313 313 322 326 323 322 325
227 228 227 229 229 231 232 234 237 243 249 253 256 257 260 254 256 263 268 270 273 276 278 273 272 275 271 271 273 273 278 281 284 285 291 290 294 301 314 318 318 318 318 318
230 231 231 232 231 231 234 237 240 245 249 253 259 259 258 255 253 258 262 268 271 274 273 267 264 267 266 266 268 271 269 273 277 282 287 289 289 292 300 303 306 309 311 310
232 234 234 234 232 233 236 237 240 245 249 253 257 262 258 252 252 259 260 264 265 270 271 265 262 266 267 265 267 268 267 270 275 281 287 289 292 291 294 298 299 299 301 303
234 235 237 238 237 237 239 241 242 246 250 255 258 260 258 256 258 258 259 263 264 267 270 267 266 267 267 264 266 267 267 270 274 278 281 283 285 286 288 292 293 295 298 298
234 236 237 237 238 238 240 243 244 247 252 257 260 260 260 261 264 261 262 264 263 266 268 266 265 267 267 265 263 264 270 275 276 274 275 280 283 284 285 287 289 292 295 295
234 237 237 238 239 240 240 242 245 248 250 252 256 258 260 263 265 263 264 265 263 265 266 266 264 263 266 267 268 270 274 277 275 274 276 278 280 283 285 286 288 290 292 292
236 238 239 241 242 243 242 242 244 248 251 252 254 256 259 261 265 266 265 267 265 263 265 267 266 261 265 267 269 270 273 275 275 275 277 279 279 280 284 285 286 287 288 289
237 238 240 243 243 244 244 244 246 248 251 253 255 256 257 259 264 266 266 266 266 264 263 265 265 263 263 265 269 271 274 276 277 278 278 279 281 281 281 283 285 287 288 287
239 240 242 245 245 245 245 245 246 248 250 253 255 256 256 258 261 264 267 267 268 268 266 266 264 264 265 267 271 273 274 276 277 278 279 279 279 280 281 282 283 285 287 287
239 241 244 246 248 248 248 247 246 248 249 252 255 256 257 258 260 263 265 268 269 269 267 267 266 266 268 271 273 272 273 274 276 275 277 278 278 280 280 281 282 282 282 284
239 242 245 247 249 250 250 248 246 247 249 251 254 256 257 257 260 262 263 267 269 268 269 268 266 266 269 271 271 271 272 274 275 276 275 274 276 279 280 280 280 280 280 281
239 242 245 247 250 251 249 250 248 249 250 251 253 254 255 257 259 261 263 266 267 268 269 268 266 266 268 270 271 272 272 273 273 275 276 273 274 277 279 279 279 279 279 279
239 242 244 246 249 251 251 251 250 251 251 251 252 253 254 256 258 260 262 264 266 267 267 267 268 270 269 270 271 271 272 273 275 275 275 276 276 278 278 279 279 279 278 278
240 242 244 246 248 251 252 252 252 252 252 252 253 255 255 257 259 259 261 263 265 265 265 266 268 270 271 271 271 272 273 273 274 275 276 278 278 278 277 279 280 280 278 278
242 243 245 246 247 250 252 253 253 252 252 253 255 255 255 256 258 259 260 261 263 264 265 266 268 269 271 273 273 273 274 274 275 274 276 278 279 277 277 280 282 281 279 279
243 245 246 247 247 250 252 252 253 253 253 254 254 255 255 255 257 258 258 259 262 264 264 266 268 271 272 273 273 273 273 273 274 275 276 277 277 278 279 279 279 280 279 281
Height
5896 5899 5900 5901 5902 5903 5903 5904 5904 5904 5904 5903 5903 5903 5903 5902 5902 5901 5900 5900 5899 5898 5898 5897 5897 5896 5896 5895 5894 5893 5893 5892 5891 5891 5890 5890 5889 5889 5888 5888 5888 5887 5887 5886
5895 5897 5899 5899 5900 5901 5902 5903 5903 5904 5903 5903 5903 5903 5903 5902 5902 5901 5901 5900 5900 5899 5898 5898 5898 5897 5897 5896 5895 5894 5894 5893 5892 5892 5891 5891 5890 5890 5889 5889 5888 5888 5888 5887
5893 5896 5896 5898 5899 5900 5901 5902 5902 5903 5903 5903 5903 5903 5903 5903 5902 5902 5901 5901 5900 5900 5899 5898 5898 5898 5897 5897 5896 5895 5895 5894 5893 5892 5892 5891 5891 5891 5890 5890 5889 5889 5888 5888
5890 5892 5894 5896 5897 5899 5900 5900 5901 5901 5902 5902 5903 5903 5903 5902 5902 5902 5901 5901 5900 5900 5899 5899 5898 5898 5898 5897 5896 5896 5895 5894 5894 5893 5892 5892 5892 5892 5891 5891 5890 5890 5889 5888
5887 5889 5891 5893 5895 5896 5898 5898 5899 5900 5900 5901 5901 5902 5903 5902 5902 5902 5901 5901 5901 5900 5899 5899 5898 5898 5898 5897 5896 5896 5895 5895 5894 5893 5893 5892 5892 5892 5892 5891 5891 5890 5889 5889
5884 5886 5888 5890 5892 5894 5896 5897 5897 5898 5899 5900 5900 5901 5902 5902 5901 5902 5901 5901 5901 5900 5900 5899 5898 5898 5897 5897 5896 5896 5895 5895 5894 5894 5893 5893 5892 5892 5892 5891 5891 5890 5890 5889
5880 5882 5884 5887 5889 5891 5893 5894 5895 5895 5896 5898 5899 5898 5901 5900 5900 5900 5901 5900 5900 5900 5899 5898 5897 5897 5897 5897 5896 5896 5895 5895 5894 5894 5893 5893 5892 5892 5892 5891 5891 5890 5889 5889
5876 5879 5881 5883 5886 5887 5889 5891 5893 5894 5894 5896 5896 5896 5899 5899 5899 5899 5899 5899 5899 5899 5898 5897 5897 5896 5896 5896 5896 5895 5895 5894 5894 5893 5893 5892 5892 5892 5891 5891 5890 5889 5889 5888
5872 5875 5878 5880 5882 5884 5886 5888 5890 5891 5891 5893 5894 5895 5897 5897 5897 5897 5898 5898 5898 5897 5897 5896 5896 5895 5895 5895 5895 5894 5894 5894 5893 5893 5892 5892 5891 5891 5891 5890 5889 5889 5888 5887
5868 5871 5874 5876 5878 5880 5883 5884 5886 5887 5888 5889 5891 5893 5895 5895 5895 5896 5896 5896 5896 5896 5895 5895 5894 5894 5894 5894 5894 5893 5893 5892 5892 5892 5891 5891 5891 5890 5890 5889 5889 5888 5887 5886
5864 5867 5870 5872 5874 5876 5879 5881 5882 5884 5885 5886 5887 5892 5892 5893 5893 5894 5894 5894 5894 5894 5893 5893 5892 5892 5892 5892 5892 5892 5891 5891 5891 5890 5890 5889 5889 5889 5888 5888 5887 5886 5885 5884
5860 5863 5865 5868 5871 5872 5875 5876 5879 5881 5882 5883 5884 5890 5889 5890 5890 5891 5891 5891 5891 5891 5891 5890 5890 5890 5890 5890 5890 5890 5889 5889 5889 5889 5888 5887 5887 5887 5887 5886 5885 5885 5884 5883
5855 5858 5860 5863 5867 5868 5870 5872 5874 5877 5878 5879 5881 5886 5886 5886 5887 5888 5888 5888 5888 5888 5888 5888 5887 5887 5887 5887 5887 5887 5887 5887 5887 5887 5886 5886 5886 5885 5884 5884 5883 5883 5882 5881
5850 5853 5856 5859 5861 5863 5865 5868 5870 5872 5874 5875 5877 5880 5882 5883 5884 5884 5884 5884 5884 5885 5885 5885 5884 5884 5884 5884 5884 5884 5884 5884 5884 5884 5884 5883 5883 5882 5882 5881 5880 5880 5879 5878
5844 5847 5850 5853 5856 5858 5860 5863 5866 5868 5870 5871 5874 5876 5878 5879 5880 5880 5880 5880 5880 5881 5881 5881 5881 5881 5881 5880 5881 5881 5881 5880 5880 5880 5880 5880 5880 5879 5878 5877 5877 5876 5875 5874
5839 5842 5845 5848 5850 5852 5855 5857 5860 5862 5864 5866 5869 5871 5873 5874 5875 5875 5876 5876 5876 5877 5877 5877 5877 5877 5877 5877 5877 5877 5876 5876 5876 5876 5876 5876 5876 5875 5874 5873 5873 5872 5871 5870
5833 5836 5839 5842 5844 5846 5849 5852 5854 5857 5859 5861 5863 5867 5867 5869 5869 5870 5871 5871 5872 5872 5872 5873 5873 5872 5872 5872 5872 5872 5873 5872 5872 5871 5871 5871 5871 5870 5870 5869 5868 5867 5866 5865
5827 5830 5832 5835 5838 5840 5845 5846 5848 5851 5853 5855 5857 5860 5862 5863 5864 5865 5865 5866 5866 5867 5867 5868 5868 5868 5867 5867 5867 5867 5867 5867 5867 5866 5866 5865 5865 5864 5864 5863 5862 5861 5860 5859
5820 5823 5825 5828 5831 5833 5837 5840 5842 5844 5847 5849 5851 5853 5855 5857 5858 5859 5860 5860 5861 5861 5862 5862 5862 5862 5862 5862 5861 5861 5861 5861 5860 5860 5860 5859 5858 5858 5857 5856 5856 5855 5854 5853
5812 5815 5819 5821 5823 5826 5832 5834 5835 5838 5840 5843 5844 5846 5848 5850 5852 5853 5853 5854 5854 5855 5855 5855 5855 5855 5856 5856 5855 5855 5855 5854 5854 5854 5853 5852 5851 5851 5850 5849 5848 5847 5846 5846
5805 5807 5810 5813 5816 5819 5824 5826 5828 5832 5835 5836 5837 5839 5841 5843 5845 5846 5847 5847 5848 5848 5848 5848 5848 5848 5849 5849 5849 5848 5848 5847 5847 5846 5845 5845 5844 5843 5843 5842 5841 5840 5839 5838
5797 5800 5803 5805 5808 5814 5816 5818 5821 5823 5826 5828 5829 5831 5833 5835 5837 5838 5839 5840 5840 5840 5841 5841 5841 5841 5841 5841 5841 5841 5841 5840 5839 5838 5837 5837 5836 5835 5834 5834 5833 5832 5831 5830
5788 5792 5795 5799 5803 5805 5807 5810 5812 5814 5817 5819 5821 5823 5825 5826 5828 5830 5831 5832 5832 5833 5833 5833 5834 5834 5834 5834 5833 5833 5832 5831 5831 5831 5829 5828 5827 5826 5826 5825 5824 5823 5822 5821
5779 5783 5787 5790 5794 5796 5799 5801 5803 5805 5808 5810 5812 5814 5816 5818 5820 5821 5822 5823 5824 5824 5825 5825 5826 5826 5826 5825 5825 5824 5824 5823 5822 5822 5821 5820 5818 5818 5817 5816 5815 5813 5812 5812
5771 5774 5777 5781 5785 5787 5790 5792 5794 5797 5799 5801 5804 5805 5807 5809 5810 5812 5813 5814 5815 5816 5816 5817 5817 5817 5817 5816 5816 5815 5814 5813 5813 5812 5811 5811 5809 5809 5808 5807 5805 5804 5803 5802
5763 5766 5769 5772 5776 5778 5782 5784 5786 5788 5790 5792 5794 5796 5797 5799 5801 5803 5804 5805 5806 5807 5808 5808 5808 5808 5808 5807 5806 5805 5804 5803 5803 5802 5802 5801 5800 5799 5798 5797 5796 5794 5793 5792